Location: The Stocker AstroScience Center
(25.7579°N, 80.3725°W)
Time: 14:12:54
(UTC-04:00)

ISS - All Passes

Search period start: 30 October 2014 00:00
Search period end: 08 November 2014 23:00
Orbit: 412 x 417 km, 51.6° (Epoch: 30 October)

Date Brightness Start Highest point End Pass type
(mag) Time Alt. Az. Time Alt. Az. Time Alt. Az.
30 Oct - 09:49:29 10° SSW 09:52:42 51° SE 09:55:55 10° NE daylight
30 Oct - 11:29:04 10° NW 11:29:35 10° NW 11:30:05 10° NNW daylight
30 Oct - 18:01:40 10° N 18:03:59 17° NE 18:06:18 10° E daylight
30 Oct - 19:37:49 10° WNW 19:40:38 25° SW 19:43:25 10° S visible
31 Oct - 09:01:00 10° S 09:03:40 23° SE 09:06:21 10° ENE daylight
31 Oct - 10:37:53 10° W 10:40:17 18° NW 10:42:41 10° N daylight
31 Oct - 18:48:18 10° NW 18:51:34 57° SW 18:54:50 10° SSE daylight
01 Nov - 08:13:45 10° SE 08:14:39 11° SE 08:15:33 10° ESE daylight
01 Nov - 09:47:57 10° WSW 09:51:01 35° NW 09:54:06 10° NNE daylight
01 Nov - 17:59:08 10° NNW 18:02:25 60° NE 18:05:42 10° SE daylight
02 Nov - 07:58:31 10° SW 08:01:48 82° NW 08:05:07 10° NE daylight
02 Nov - 16:10:15 10° NNW 16:13:10 28° NE 16:16:04 10° ESE daylight
02 Nov - 17:47:42 10° W 17:49:37 15° SW 17:51:32 10° SSW daylight
03 Nov - 07:09:29 10° SSW 07:12:37 41° SE 07:15:45 10° ENE daylight
03 Nov - 08:48:05 10° WNW 08:49:25 12° NW 08:50:45 10° NNW daylight
03 Nov - 15:21:47 10° N 15:23:47 15° NE 15:25:47 10° ENE daylight
03 Nov - 16:57:31 10° WNW 17:00:29 30° SW 17:03:27 10° S daylight
04 Nov - 06:21:02 10° S 06:23:26 19° SE 06:25:51 10° ENE daylight
04 Nov - 07:57:21 10° W 07:59:58 22° NW 08:02:36 10° N daylight
04 Nov - 16:07:57 10° NW 16:11:15 73° SW 16:14:33 10° SE daylight
05 Nov - 07:07:25 10° WSW 07:10:35 43° NW 07:13:45 10° NNE daylight
05 Nov - 15:18:42 10° NNW 15:21:55 47° NE 15:25:08 10° ESE daylight
06 Nov - 06:17:56 10° SW 06:21:13 79° SE 06:24:31 10° NE daylight
06 Nov - 14:29:45 10° NNW 14:32:29 23° NE 14:35:12 10° E daylight
06 Nov - 16:06:41 10° W 16:08:59 18° SW 16:11:18 10° S daylight
07 Nov - 05:28:53 10° SSW 05:31:53 33° SE 05:34:53 10° ENE visible
07 Nov - 07:06:46 10° WNW 07:08:36 14° NW 07:10:26 10° N daylight
07 Nov - 13:41:22 10° NNE 13:42:55 13° NE 13:44:28 10° ENE daylight
07 Nov - 15:16:34 10° WNW 15:19:41 38° SW 15:22:47 10° SSE daylight
08 Nov - 04:40:32 10° SSE 04:42:33 15° SE 04:44:35 10° E visible
08 Nov - 06:16:11 10° WSW 06:19:01 26° NW 06:21:51 10° NNE daylight
08 Nov - 14:26:57 10° NW 14:30:16 88° NE 14:33:35 10° SE daylight
